北斗三号 M3 (BEIDOU 3M3)

导读

BEIDOU-3 M7 是中国北斗三号全球卫星导航系统中的一颗中圆地球轨道(MEO)卫星,属于北斗三号的组成部分之一。该卫星于2020年发射,主要用于提供高精度定位、导航和授时服务。北斗三号系统由多颗地球静止轨道(GEO)、倾斜地球同步轨道(IGSO)和中圆轨道(MEO)卫星组成,M7 卫星在提升系统覆盖范围和定位精度方面发挥重要作用,为全球用户提供全天候、全天时的导航服务。

Basic Information
目录编号:
43107
目录名称:
BEIDOU 3M3
国际标识:
2018-003A
轨道中心:
EARTH
卫星名称:
北斗三号 M3
卫星全名:
北斗三号 M3 (BEIDOU 3M3)
卫星状态:
在轨 (已飞行3076 天)
发射日期:
2018-01-11 UTC
国别 :
中国 (CN)
星等 :
--
Orbit Information
数据来源 国际轨道数据 AOE轨道数据
星历时间 2026-06-12T20:25:44+0800
1天前
查看轨道信息
2026-06-10T04:00:00+0800
4天前
查看轨道信息
半长轴 27906.469km 27906.499km
偏心率 0.0004908 0.0004947
轨道倾角 54.333° 54.335°
近地点辐角 93.107° 92.513°
升交点赤经 302.478° 302.572°
平近点角 266.932° 267.706°
近地点 21514.635km 21514.556km
远地点 21542.029km 21542.168km
周期 773.245分钟 773.246分钟
每日圈数 1.862282 1.862279
Detailed Information
平衡模式:
三轴稳定
制造商(研发单位):
中国科学院
制造商所在国:
中国
使用方式:
暂无
工作目标:
为全球用户提供连续、稳定、可靠的北斗导航、定位服务
预期寿命:
12年
Satellite Introduction
北斗卫星导航系统是中国着眼于国家安全和经济社会发展需要,自主建设运行的全球卫星导航系统,是为全球用户提供全天候、全天时、高精度的定位、导航和授时服务的国家重要时空基础设施。该卫星仍在工作。
2D Orbit Map
3D Orbit Map
Orbit Altitude Analysis Chart
Orbit Inclination Analysis Chart
Orbit Comprehensive Analysis Chart
View Comprehensive Chart